Flight Information

DEPARTURE
YUMA, AZ
Elevation:
213
Runways:
3R/21L - 9240x150 - ASPH-CONC-G
8/26 - 6146x150 - ASPH-G
17/35 - 5710x150 - ASPH-CONC-G
3L/21R - 13300x200 - CONC-G
ATIS:
118.8
Clearance Delivery:
118
Ground:
121.9
Tower:
119.3
DESTINATION
,
Elevation:
TPA:
1000 (est.)


6631 NM76° True-13° Var63° HDG

Flight Plan:
(click to file on line)

1. Type
2. Aircraft Identification
3. Aircraft Type / Special Equipment
4. True Airspeed
kts
5. Departure Airport
(ICAO code)
6. Arriving Airport
(ICAO code)
7. Cruising Altitude
ft
8. Alternate Airport
(ICAO code)
9. Route of Flight
10. Remarks


00:00:00 Departure ATIS: Destination ATIS:

Clearance Limit:
Route:
Altitude: Expect in minutes
Frequency:
Transponder: (7500 Hijack / 7600 Lost Comms / 7700 Emergency)


KNYL 282057Z 36011KT 7SM BKN200 19/M13 A3026 RMK AO2 SLP245 T01891128 58035 $
Time: 2022-01-28T20:57:00Z
1643405823
Winds: 360 @ 11 kts
Visibility: 7.0 sm
Clouds (AGL): BKN 20000
Temperature: 18.9 C
Dew Point: -12.8 C
Pressure: 30.259842 in Hgbr


Notes:

Data extracted from FAA Digital Chart Supplement. Effective: 0901Z Thursday, DEC 2, 2021 to 0901Z Thursday, JAN 27, 2022
Current ATIS data is provided courtisy of PilotEdge.